TimeEST,TemperatureF,Dew PointF,Humidity,Sea Level PressureIn,VisibilityMPH,Wind Direction,Wind SpeedMPH,Gust SpeedMPH,PrecipitationIn,Events,Conditions,WindDirDegrees,DateUTC
12:49 AM,33.8,30.2,87,29.52,10.0,North,5.8,-,N/A,,Overcast,360,2013-03-01 05:49:00
12:51 AM,34.0,30.0,85,29.52,10.0,North,4.6,-,N/A,,Overcast,350,2013-03-01 05:51:00
1:51 AM,33.1,28.9,85,29.52,10.0,North,5.8,-,N/A,,Mostly Cloudy,360,2013-03-01 06:51:00
2:49 AM,33.8,28.4,81,29.52,10.0,NNE,5.8,-,N/A,,Mostly Cloudy,20,2013-03-01 07:49:00
2:51 AM,33.1,28.9,85,29.52,10.0,North,5.8,-,N/A,,Mostly Cloudy,10,2013-03-01 07:51:00
3:51 AM,33.1,28.0,82,29.53,10.0,North,6.9,-,N/A,,Overcast,10,2013-03-01 08:51:00
4:49 AM,33.8,26.6,75,29.54,10.0,North,5.8,-,N/A,,Overcast,360,2013-03-01 09:49:00
4:51 AM,33.1,27.0,78,29.54,10.0,North,4.6,-,N/A,,Overcast,350,2013-03-01 09:51:00
5:51 AM,32.0,27.0,82,29.55,10.0,NNW,4.6,-,N/A,,Overcast,330,2013-03-01 10:51:00
6:51 AM,30.9,27.0,85,29.57,10.0,NW,4.6,-,N/A,,Overcast,320,2013-03-01 11:51:00
7:51 AM,33.1,28.0,82,29.58,10.0,NW,4.6,-,N/A,,Overcast,320,2013-03-01 12:51:00
8:51 AM,36.0,26.1,67,29.60,10.0,North,6.9,-,N/A,,Overcast,360,2013-03-01 13:51:00
9:51 AM,37.9,26.1,62,29.60,10.0,Variable,6.9,-,N/A,,Overcast,0,2013-03-01 14:51:00
10:51 AM,37.9,26.1,62,29.60,10.0,North,8.1,17.3,N/A,,Overcast,360,2013-03-01 15:51:00
11:51 AM,37.9,26.1,62,29.61,10.0,NNW,11.5,19.6,N/A,,Overcast,340,2013-03-01 16:51:00
12:51 PM,37.9,27.0,65,29.61,10.0,North,4.6,-,N/A,,Overcast,10,2013-03-01 17:51:00
1:14 PM,37.4,26.6,65,29.60,10.0,North,8.1,-,N/A,,Overcast,360,2013-03-01 18:14:00
1:51 PM,37.9,27.0,65,29.60,10.0,North,5.8,-,N/A,,Overcast,350,2013-03-01 18:51:00
2:41 PM,37.4,26.6,65,29.61,10.0,North,5.8,-,N/A,,Overcast,350,2013-03-01 19:41:00
2:51 PM,37.0,28.0,70,29.61,10.0,NNW,6.9,-,N/A,,Overcast,330,2013-03-01 19:51:00
3:51 PM,36.0,28.9,76,29.62,10.0,NW,6.9,-,N/A,,Overcast,310,2013-03-01 20:51:00
4:51 PM,36.0,28.9,76,29.63,10.0,WNW,4.6,-,N/A,,Overcast,300,2013-03-01 21:51:00
5:51 PM,36.0,28.9,76,29.65,10.0,NW,4.6,-,N/A,,Overcast,310,2013-03-01 22:51:00
6:51 PM,35.1,28.0,76,29.65,10.0,NW,5.8,-,N/A,,Overcast,310,2013-03-01 23:51:00
7:51 PM,35.1,27.0,72,29.65,10.0,NW,6.9,-,0.00,,Overcast,310,2013-03-02 00:51:00
8:51 PM,34.0,27.0,75,29.66,10.0,NW,5.8,-,N/A,,Overcast,320,2013-03-02 01:51:00
9:51 PM,34.0,27.0,75,29.66,10.0,NNW,5.8,-,N/A,,Overcast,330,2013-03-02 02:51:00
10:51 PM,33.1,28.0,82,29.65,8.0,NW,6.9,-,0.00,,Overcast,310,2013-03-02 03:51:00
11:51 PM,32.0,28.0,85,29.65,7.0,WNW,5.8,-,0.00,Snow,Light Snow,300,2013-03-02 04:51:00